Location: Brookfield Center
(41.2406°N, 80.5579°W)
Time: 10:39:59
(UTC+00:00)

Cosmos 2297 Rocket - Pass Details

Date: 18 January 2020
Orbit: 838 x 845 km, 71.0° (Epoch: 17 February)

Event Time Altitude Azimuth Distance (km) Brightness Sun altitude
Exits shadow 09:29:21 36° 83° (E) 1,309 3.5 -36.3°
Drops below altitude 10° 09:33:37 10° 128° (SE) 2,461 5.1 -35.5°
Sets 09:36:13 0° 135° (SE) 3,392 5.9 -35.0°
